Home   Weather   Washington, D.C.   Past weeks
Flag for USA

Past Weather in Washington, D.C., District of Columbia, USA — Yesterday and Last 2 Weeks

Now
70 °F

Partly sunny.


Feels Like: 77 °F
Forecast: 86 / 61 °F
Wind: 10 mph from South

Location: Reagan National Airport

Current Time: May 22, 2019 at 8:00:08 pm

Latest Report: May 22, 2019 at 6:52 pm


Visibility: 10 mi

Pressure: 30.22 "Hg

Humidity: 49%

Dew Point: 50 °F

Location of Washington, D.C.Location

Past Weather in Washington, D.C. — Graph

°F

Washington, D.C. Temperature Yesterday

Maximum temperature yesterday: 73 °F (at 12:52 am)
Minimum temperature yesterday: 63 °F (at 5:52 am)
Average temperature yesterday: 67 °F

High & Low Weather Summary for the Past Weeks

 TemperatureHumidityPressure
High90 °F (May 20, 3:56 pm)94% (May 18, 6:52 am)30.29 "Hg (May 18, 6:52 am)
Low50 °F (May 13, 2:26 am)27% (May 15, 2:52 pm)29.74 "Hg (May 12, 2:52 pm)
Average66 °F68%29.96 "Hg
* Reported May 7 6:52 pm — May 22 6:52 pm, Washington, D.C.. Weather by CustomWeather, © 2019

Note: Actual official high and low records may vary slightly from our data, if they occured in-between our weather recording intervals... More about our weather records

Advertising

Washington, D.C. Weather History for the Previous 24 Hours

Scroll right to see more
 ConditionsComfort  
Time TempWeatherWind HumidityBarometerVisibility
6:52 pm
Wed, May 22
70 °FPartly sunny.10 mph49%30.22 "Hg10 mi
5:52 pm71 °FPartly sunny.8 mph44%30.24 "Hg10 mi
4:52 pm72 °FPartly sunny.8 mph40%30.24 "Hg10 mi
3:52 pm70 °FPartly sunny.7 mph41%30.26 "Hg10 mi
2:52 pm71 °FOvercast.9 mph38%30.27 "Hg10 mi
1:52 pm69 °FOvercast.7 mph36%30.27 "Hg10 mi
12:52 pm68 °FOvercast.5 mph38%30.29 "Hg10 mi
11:52 am68 °FPartly sunny.7 mph36%30.28 "Hg10 mi
10:52 am67 °FBroken clouds.6 mph42%30.29 "Hg10 mi
9:52 am67 °FPartly sunny.9 mph41%30.29 "Hg10 mi
8:52 am63 °FBroken clouds.6 mph50%30.28 "Hg10 mi
7:52 am62 °FPartly sunny.6 mph52%30.27 "Hg10 mi
6:52 am59 °FPartly sunny.5 mph58%30.25 "Hg10 mi
5:52 am58 °FPartly sunny.3 mph58%30.23 "Hg10 mi
4:52 am58 °FPassing clouds.5 mph60%30.21 "Hg10 mi
3:52 am59 °FPassing clouds.7 mph60%30.19 "Hg10 mi
2:52 am61 °FPassing clouds.8 mph54%30.18 "Hg10 mi
1:52 am61 °FPassing clouds.6 mph56%30.16 "Hg10 mi
12:52 am62 °FPassing clouds.6 mph52%30.14 "Hg10 mi
11:52 pm
Tue, May 21
63 °FPassing clouds.6 mph52%30.13 "Hg10 mi
10:52 pm64 °FPassing clouds.7 mph49%30.12 "Hg10 mi
9:52 pm65 °FPassing clouds.8 mph47%30.11 "Hg10 mi
8:52 pm68 °FMostly cloudy.13 mph39%30.09 "Hg10 mi
Weather by CustomWeather, © 2019

See weather overview